QPF
0.00 0.00 0.00 0.00 0.00 0.00 0.00 0.00 0.00 0.00 0.00 0.00 0.00 0.00 0.00 0.00 0.00 0.00 0.00 0.00 0.00 0.00 0.00 0.00 0.00 0.00 0.00 0.00 0.00 0.00 0.00 0.00 0.00 0.00 0.00 0.00 0.00 0.00 0.00 0.00 0.00 0.00 0.00 0.00 0.00 0.00 0.00 0.00 0.00 0.00 0.00 0.00 0.00 0.00 0.00 0.00 0.00 0.00 0.00 0.00 0.00 0.00 0.00 0.00 0.00 0.00 0.00 0.00 0.00 0.00 0.00 0.00 0.00 0.00
0.00 0.00 0.00 0.00 0.00 0.00 0.00 0.00 0.00 0.00 0.00 0.00 0.00 0.00 0.00 0.00 0.00 0.00 0.00 0.00 0.00 0.00 0.00 0.00 0.00 0.00 0.00 0.00 0.00 0.00 0.00 0.00 0.00 0.00 0.00 0.00 0.00 0.00 0.00 0.00 0.00 0.00 0.00 0.00 0.00 0.00 0.00 0.00 0.00 0.00 0.00 0.00 0.00 0.00 0.00 0.00 0.00 0.00 0.00 0.00 0.00 0.00 0.00 0.00 0.00 0.00 0.00 0.00 0.00 0.00 0.00 0.00 0.00 0.00
0.00 0.00 0.00 0.00 0.00 0.00 0.00 0.00 0.00 0.00 0.00 0.00 0.00 0.00 0.00 0.00 0.00 0.00 0.00 0.00 0.00 0.00 0.00 0.00 0.00 0.00 0.00 0.00 0.00 0.00 0.00 0.00 0.00 0.00 0.00 0.00 0.00 0.00 0.00 0.00 0.00 0.00 0.00 0.00 0.00 0.00 0.00 0.00 0.00 0.00 0.00 0.00 0.00 0.00 0.00 0.00 0.00 0.00 0.00 0.00 0.00 0.00 0.00 0.00 0.00 0.00 0.00 0.00 0.00 0.00 0.00 0.00 0.00 0.00
0.00 0.00 0.00 0.00 0.00 0.00 0.00 0.00 0.00 0.00 0.00 0.00 0.00 0.00 0.00 0.00 0.00 0.00 0.00 0.00 0.00 0.00 0.00 0.00 0.00 0.00 0.00 0.00 0.00 0.00 0.00 0.00 0.00 0.00 0.00 0.00 0.00 0.00 0.00 0.00 0.00 0.00 0.00 0.00 0.00 0.00 0.00 0.00 0.00 0.00 0.00 0.00 0.00 0.00 0.00 0.00 0.00 0.00 0.00 0.00 0.00 0.00 0.00 0.00 0.00 0.00 0.00 0.00 0.00 0.00 0.00 0.00 0.00 0.00
0.00 0.00 0.00 0.00 0.00 0.00 0.00 0.00 0.00 0.00 0.00 0.00 0.00 0.00 0.00 0.00 0.00 0.00 0.00 0.00 0.00 0.00 0.00 0.00 0.00 0.00 0.00 0.00 0.00 0.00 0.00 0.00 0.00 0.00 0.00 0.00 0.00 0.00 0.00 0.00 0.00 0.00 0.00 0.00 0.00 0.00 0.00 0.00 0.00 0.00 0.00 0.00 0.00 0.00 0.00 0.00 0.00 0.00 0.00 0.00 0.00 0.00 0.00 0.00 0.00 0.00 0.00 0.00 0.00 0.00 0.00 0.00 0.00 0.00
0.00 0.00 0.00 0.00 0.00 0.00 0.00 0.00 0.00 0.00 0.00 0.00 0.00 0.00 0.00 0.00 0.00 0.00 0.00 0.00 0.00 0.00 0.00 0.00 0.00 0.00 0.00 0.00 0.00 0.00 0.00 0.00 0.00 0.00 0.00 0.00 0.00 0.00 0.00 0.00 0.00 0.00 0.00 0.00 0.00 0.00 0.00 0.00 0.00 0.00 0.00 0.00 0.00 0.00 0.00 0.00 0.00 0.00 0.00 0.00 0.00 0.00 0.00 0.00 0.00 0.00 0.00 0.00 0.00 0.00 0.00 0.00 0.00 0.00
0.00 0.00 0.00 0.00 0.00 0.00 0.00 0.00 0.00 0.00 0.00 0.00 0.00 0.00 0.00 0.00 0.00 0.00 0.00 0.00 0.00 0.00 0.00 0.00 0.00 0.00 0.00 0.00 0.00 0.00 0.00 0.00 0.00 0.00 0.00 0.00 0.00 0.00 0.00 0.00 0.00 0.00 0.00 0.00 0.00 0.00 0.00 0.00 0.00 0.00 0.00 0.00 0.00 0.00 0.00 0.00 0.00 0.00 0.00 0.00 0.00 0.00 0.00 0.00 0.00 0.00 0.00 0.00 0.00 0.00 0.00 0.00 0.00 0.00
0.00 0.00 0.00 0.00 0.00 0.00 0.00 0.00 0.00 0.00 0.00 0.00 0.00 0.00 0.00 0.00 0.00 0.00 0.00 0.00 0.00 0.00 0.00 0.00 0.00 0.00 0.00 0.00 0.00 0.00 0.00 0.00 0.00 0.00 0.00 0.00 0.00 0.00 0.00 0.00 0.00 0.00 0.00 0.00 0.00 0.00 0.00 0.00 0.00 0.00 0.00 0.00 0.00 0.00 0.00 0.00 0.00 0.00 0.00 0.00 0.00 0.00 0.00 0.00 0.00 0.00 0.00 0.00 0.00 0.00 0.00 0.00 0.00 0.00
0.00 0.00 0.00 0.00 0.00 0.00 0.00 0.00 0.00 0.00 0.00 0.00 0.00 0.00 0.00 0.00 0.00 0.00 0.00 0.00 0.00 0.00 0.00 0.00 0.00 0.00 0.00 0.00 0.00 0.00 0.00 0.00 0.00 0.00 0.00 0.00 0.00 0.00 0.00 0.00 0.00 0.00 0.00 0.00 0.00 0.00 0.00 0.00 0.00 0.00 0.00 0.00 0.00 0.00 0.00 0.00 0.00 0.00 0.00 0.00 0.00 0.00 0.00 0.00 0.00 0.01 0.00 0.00 0.00 0.00 0.00 0.00 0.00 0.00
0.00 0.00 0.00 0.00 0.00 0.00 0.00 0.00 0.00 0.00 0.00 0.00 0.00 0.00 0.00 0.00 0.00 0.00 0.00 0.00 0.00 0.00 0.00 0.00 0.00 0.00 0.00 0.00 0.00 0.00 0.00 0.00 0.00 0.00 0.00 0.00 0.00 0.00 0.00 0.00 0.00 0.00 0.00 0.00 0.00 0.00 0.00 0.00 0.00 0.00 0.00 0.00 0.00 0.00 0.00 0.00 0.00 0.00 0.00 0.00 0.00 0.00 0.01 0.00 0.00 0.00 0.01 0.01 0.00 0.00 0.00 0.00 0.00 0.00
0.00 0.00 0.00 0.00 0.00 0.00 0.00 0.00 0.00 0.00 0.00 0.00 0.00 0.00 0.00 0.00 0.00 0.00 0.00 0.00 0.00 0.00 0.00 0.00 0.00 0.00 0.00 0.00 0.00 0.00 0.00 0.00 0.00 0.00 0.00 0.00 0.00 0.00 0.00 0.00 0.00 0.00 0.00 0.00 0.00 0.00 0.00 0.00 0.00 0.00 0.00 0.00 0.00 0.00 0.00 0.00 0.00 0.00 0.00 0.00 0.00 0.01 0.00 0.00 0.00 0.03 0.01 0.00 0.00 0.00 0.04 0.00 0.00 0.00
0.00 0.00 0.00 0.00 0.00 0.00 0.00 0.00 0.00 0.00 0.00 0.00 0.00 0.00 0.00 0.00 0.00 0.00 0.00 0.00 0.00 0.00 0.00 0.00 0.00 0.00 0.00 0.00 0.00 0.00 0.00 0.00 0.00 0.00 0.00 0.00 0.00 0.00 0.00 0.00 0.00 0.00 0.00 0.00 0.00 0.00 0.00 0.00 0.00 0.00 0.00 0.00 0.00 0.00 0.00 0.00 0.00 0.00 0.00 0.00 0.00 0.00 0.01 0.00 0.04 0.01 0.00 0.00 0.01 0.01 0.00 0.00 0.00 0.00
0.00 0.00 0.00 0.00 0.00 0.00 0.00 0.00 0.00 0.00 0.00 0.00 0.00 0.00 0.00 0.00 0.00 0.00 0.00 0.00 0.00 0.00 0.00 0.00 0.00 0.00 0.00 0.00 0.00 0.00 0.00 0.00 0.00 0.00 0.00 0.00 0.00 0.00 0.00 0.00 0.00 0.00 0.00 0.00 0.00 0.00 0.00 0.00 0.00 0.00 0.00 0.00 0.00 0.00 0.00 0.00 0.00 0.00 0.01 0.00 0.00 0.01 0.02 0.01 0.01 0.00 0.02 0.03 0.00 0.00 0.00 0.00 0.00 0.00
0.00 0.00 0.00 0.00 0.00 0.00 0.00 0.00 0.00 0.00 0.00 0.00 0.00 0.00 0.00 0.00 0.00 0.00 0.00 0.00 0.00 0.00 0.00 0.00 0.00 0.00 0.00 0.00 0.00 0.00 0.00 0.00 0.00 0.00 0.00 0.00 0.00 0.00 0.00 0.00 0.00 0.00 0.00 0.00 0.00 0.00 0.00 0.00 0.00 0.00 0.00 0.00 0.00 0.00 0.00 0.00 0.01 0.04 0.01 0.07 0.02 0.03 0.00 0.02 0.02 0.04 0.00 0.00 0.00 0.00 0.00 0.00 0.00 0.00
0.00 0.00 0.00 0.00 0.00 0.00 0.00 0.00 0.00 0.00 0.00 0.00 0.00 0.00 0.00 0.00 0.00 0.00 0.00 0.00 0.00 0.00 0.00 0.00 0.00 0.00 0.00 0.00 0.00 0.00 0.00 0.00 0.00 0.00 0.00 0.00 0.00 0.01 0.01 0.01 0.00 0.00 0.00 0.00 0.00 0.00 0.00 0.00 0.00 0.00 0.00 0.00 0.00 0.00 0.00 0.00 0.01 0.25 0.10 0.03 0.00 0.00 0.00 0.00 0.02 0.00 0.00 0.00 0.00 0.00 0.00 0.00 0.00 0.00
0.00 0.00 0.00 0.00 0.00 0.00 0.00 0.00 0.00 0.00 0.00 0.00 0.00 0.00 0.00 0.00 0.00 0.00 0.00 0.00 0.00 0.00 0.00 0.00 0.00 0.00 0.00 0.00 0.00 0.00 0.00 0.00 0.00 0.00 0.00 0.00 0.00 0.01 0.01 0.00 0.00 0.00 0.00 0.00 0.00 0.00 0.00 0.00 0.00 0.00 0.00 0.00 0.00 0.00 0.00 0.00 0.04 0.03 0.52 0.12 0.01 0.01 0.00 0.00 0.00 0.00 0.00 0.01 0.01 0.00 0.00 0.00 0.00 0.00
0.00 0.00 0.00 0.00 0.00 0.00 0.00 0.00 0.00 0.00 0.00 0.00 0.00 0.00 0.00 0.00 0.00 0.00 0.00 0.00 0.00 0.00 0.00 0.00 0.00 0.00 0.00 0.00 0.00 0.01 0.00 0.00 0.01 0.01 0.01 0.01 0.00 0.00 0.01 0.00 0.00 0.00 0.00 0.01 0.01 0.00 0.00 0.00 0.00 0.00 0.00 0.00 0.00 0.00 0.00 0.00 0.00 0.01 0.50 0.96 0.11 0.00 0.00 0.00 0.00 0.00 0.00 0.00 0.00 0.00 0.00 0.00 0.00 0.00
0.00 0.00 0.00 0.00 0.00 0.00 0.00 0.00 0.00 0.00 0.00 0.00 0.00 0.00 0.00 0.00 0.00 0.00 0.00 0.00 0.00 0.00 0.00 0.00 0.00 0.00 0.00 0.00 0.00 0.00 0.00 0.03 0.02 0.01 0.01 0.01 0.01 0.01 0.01 0.00 0.00 0.00 0.00 0.00 0.01 0.01 0.00 0.00 0.00 0.00 0.00 0.00 0.00 0.00 0.00 0.00 0.00 0.00 0.30 0.62 0.04 0.00 0.00 0.00 0.00 0.00 0.00 0.00 0.00 0.00 0.00 0.00 0.00 0.00
0.00 0.00 0.00 0.00 0.00 0.00 0.00 0.00 0.00 0.00 0.00 0.00 0.00 0.00 0.00 0.00 0.00 0.00 0.00 0.00 0.00 0.00 0.00 0.00 0.00 0.00 0.00 0.00 0.00 0.00 0.00 0.01 0.00 0.01 0.01 0.01 0.01 0.00 0.00 0.00 0.00 0.00 0.00 0.00 0.01 0.02 0.00 0.00 0.00 0.00 0.00 0.00 0.00 0.00 0.00 0.00 0.00 0.00 0.00 0.00 0.29 0.00 0.00 0.00 0.00 0.00 0.00 0.00 0.00 0.00 0.00 0.00 0.00 0.00
0.00 0.00 0.00 0.00 0.00 0.00 0.00 0.00 0.00 0.00 0.00 0.00 0.00 0.00 0.00 0.00 0.00 0.00 0.00 0.00 0.00 0.00 0.00 0.00 0.00 0.00 0.00 0.00 0.00 0.00 0.00 0.00 0.00 0.00 0.00 0.00 0.00 0.01 0.01 0.01 0.00 0.00 0.00 0.00 0.04 0.01 0.00 0.00 0.00 0.00 0.00 0.00 0.00 0.00 0.00 0.00 0.00 0.00 0.00 0.00 0.00 0.01 0.15 0.00 0.00 0.00 0.00 0.00 0.00 0.00 0.00 0.00 0.00 0.00
0.00 0.00 0.00 0.00 0.00 0.00 0.00 0.00 0.00 0.00 0.00 0.00 0.00 0.00 0.00 0.00 0.00 0.00 0.00 0.00 0.00 0.00 0.00 0.00 0.00 0.00 0.00 0.00 0.00 0.00 0.00 0.00 0.00 0.00 0.00 0.00 0.00 0.01 0.02 0.01 0.00 0.00 0.00 0.00 0.00 0.00 0.00 0.00 0.00 0.00 0.00 0.00 0.00 0.00 0.00 0.00 0.00 0.00 0.00 0.00 0.00 0.00 0.00 0.00 0.00 0.00 0.00 0.00 0.00 0.00 0.00 0.00 0.00 0.00
0.00 0.00 0.00 0.00 0.00 0.00 0.00 0.00 0.00 0.00 0.00 0.00 0.00 0.00 0.00 0.00 0.00 0.00 0.00 0.00 0.00 0.00 0.00 0.00 0.00 0.00 0.00 0.00 0.00 0.00 0.00 0.00 0.00 0.00 0.00 0.00 0.01 0.01 0.01 0.01 0.00 0.00 0.00 0.00 0.00 0.01 0.00 0.00 0.00 0.00 0.00 0.00 0.00 0.00 0.00 0.00 0.00 0.00 0.00 0.00 0.00 0.00 0.00 0.00 0.02 0.00 0.00 0.00 0.00 0.00 0.00 0.00 0.00 0.00
0.00 0.00 0.00 0.00 0.00 0.00 0.00 0.00 0.00 0.00 0.00 0.00 0.00 0.00 0.00 0.00 0.00 0.00 0.00 0.00 0.00 0.00 0.00 0.01 0.01 0.00 0.00 0.00 0.00 0.00 0.00 0.00 0.00 0.00 0.00 0.00 0.00 0.01 0.00 0.00 0.01 0.01 0.00 0.00 0.00 0.04 0.00 0.00 0.00 0.01 0.01 0.00 0.00 0.00 0.00 0.00 0.00 0.00 0.00 0.00 0.00 0.00 0.00 0.00 0.00 0.00 0.00 0.00 0.00 0.01 0.01 0.00 0.00 0.00
0.00 0.00 0.00 0.00 0.00 0.00 0.00 0.00 0.00 0.00 0.00 0.00 0.00 0.00 0.00 0.00 0.00 0.00 0.00 0.00 0.00 0.00 0.00 0.00 0.00 0.00 0.00 0.00 0.00 0.00 0.00 0.01 0.00 0.00 0.00 0.00 0.01 0.01 0.01 0.01 0.01 0.02 0.00 0.00 0.01 0.07 0.01 0.01 0.01 0.00 0.03 0.06 0.01 0.00 0.00 0.00 0.01 0.01 0.03 0.01 0.00 0.00 0.00 0.00 0.00 0.00 0.00 0.00 0.00 0.00 0.01 0.02 0.02 0.01
0.00 0.00 0.00 0.00 0.00 0.00 0.00 0.00 0.00 0.00 0.00 0.00 0.00 0.00 0.00 0.00 0.00 0.00 0.00 0.00 0.00 0.00 0.00 0.00 0.00 0.00 0.00 0.00 0.00 0.00 0.00 0.00 0.00 0.00 0.00 0.01 0.01 0.01 0.02 0.01 0.01 0.01 0.00 0.00 0.00 0.02 0.03 0.00 0.02 0.01 0.02 0.02 0.01 0.01 0.01 0.02 0.02 0.02 0.04 0.04 0.02 0.01 0.00 0.00 0.00 0.00 0.00 0.00 0.00 0.00 0.00 0.01 0.01 0.02
0.00 0.00 0.00 0.00 0.00 0.00 0.00 0.00 0.00 0.00 0.00 0.00 0.00 0.00 0.00 0.00 0.00 0.00 0.00 0.00 0.00 0.00 0.00 0.00 0.00 0.00 0.00 0.00 0.00 0.00 0.00 0.00 0.00 0.00 0.00 0.00 0.00 0.00 0.00 0.00 0.01 0.01 0.00 0.00 0.00 0.01 0.04 0.01 0.00 0.02 0.01 0.04 0.01 0.01 0.02 0.01 0.01 0.01 0.03 0.02 0.04 0.03 0.01 0.01 0.00 0.00 0.01 0.01 0.02 0.02 0.00 0.00 0.00 0.00
0.00 0.00 0.00 0.00 0.00 0.00 0.00 0.00 0.00 0.00 0.00 0.00 0.00 0.00 0.00 0.00 0.00 0.00 0.00 0.00 0.00 0.00 0.00 0.00 0.00 0.00 0.00 0.00 0.00 0.00 0.00 0.00 0.00 0.00 0.00 0.00 0.00 0.00 0.00 0.00 0.00 0.00 0.00 0.00 0.00 0.01 0.03 0.01 0.00 0.03 0.01 0.01 0.03 0.01 0.01 0.03 0.01 0.02 0.04 0.04 0.03 0.02 0.02 0.02 0.03 0.01 0.00 0.06 0.12 0.13 0.15 0.09 0.08 0.03
0.00 0.00 0.00 0.00 0.00 0.00 0.00 0.00 0.00 0.00 0.00 0.00 0.00 0.00 0.00 0.00 0.00 0.00 0.00 0.00 0.00 0.00 0.00 0.00 0.01 0.00 0.00 0.00 0.00 0.00 0.00 0.00 0.00 0.00 0.00 0.00 0.00 0.00 0.00 0.00 0.00 0.00 0.00 0.00 0.00 0.00 0.00 0.00 0.00 0.01 0.03 0.03 0.03 0.03 0.01 0.00 0.00 0.02 0.04 0.05 0.03 0.03 0.02 0.01 0.01 0.02 0.05 0.03 0.04 0.07 0.09 0.11 0.07 0.09
0.00 0.00 0.00 0.00 0.00 0.00 0.00 0.00 0.00 0.00 0.00 0.00 0.00 0.00 0.00 0.00 0.00 0.00 0.00 0.00 0.01 0.01 0.01 0.00 0.00 0.00 0.00 0.00 0.00 0.00 0.00 0.00 0.00 0.00 0.00 0.00 0.00 0.00 0.00 0.00 0.00 0.00 0.00 0.00 0.00 0.00 0.00 0.00 0.01 0.00 0.01 0.01 0.03 0.02 0.03 0.02 0.01 0.01 0.03 0.06 0.07 0.04 0.02 0.01 0.01 0.00 0.00 0.00 0.01 0.01 0.03 0.08 0.08 0.14
0.00 0.00 0.00 0.00 0.00 0.00 0.00 0.00 0.00 0.00 0.00 0.00 0.00 0.00 0.00 0.00 0.00 0.00 0.00 0.01 0.01 0.00 0.00 0.00 0.00 0.00 0.00 0.00 0.00 0.00 0.00 0.00 0.00 0.00 0.00 0.00 0.00 0.00 0.00 0.00 0.00 0.00 0.00 0.00 0.00 0.00 0.00 0.00 0.00 0.01 0.01 0.01 0.01 0.02 0.01 0.02 0.03 0.01 0.04 0.03 0.02 0.01 0.01 0.00 0.00 0.00 0.01 0.00 0.00 0.00 0.00 0.02 0.03 0.09
0.00 0.00 0.00 0.00 0.00 0.00 0.00 0.00 0.00 0.00 0.00 0.00 0.00 0.00 0.00 0.00 0.00 0.00 0.00 0.00 0.00 0.00 0.00 0.00 0.00 0.00 0.00 0.00 0.00 0.00 0.00 0.00 0.00 0.00 0.00 0.00 0.00 0.00 0.00 0.00 0.00 0.00 0.00 0.00 0.00 0.00 0.00 0.00 0.00 0.00 0.03 0.02 0.01 0.01 0.01 0.01 0.02 0.03 0.02 0.05 0.06 0.08 0.02 0.03 0.01 0.01 0.01 0.00 0.01 0.08 0.15 0.13 0.17 0.22
0.00 0.00 0.00 0.00 0.00 0.00 0.00 0.00 0.00 0.00 0.00 0.00 0.00 0.00 0.00 0.01 0.00 0.00 0.00 0.00 0.00 0.00 0.00 0.00 0.00 0.00 0.00 0.00 0.00 0.00 0.00 0.00 0.00 0.00 0.00 0.00 0.00 0.00 0.00 0.00 0.00 0.00 0.00 0.00 0.00 0.00 0.00 0.00 0.00 0.00 0.01 0.02 0.05 0.02 0.01 0.01 0.02 0.04 0.03 0.03 0.08 0.07 0.04 0.04 0.02 0.02 0.02 0.02 0.02 0.02 0.05 0.17 0.14 0.16
0.00 0.00 0.00 0.00 0.00 0.00 0.00 0.00 0.00 0.00 0.00 0.01 0.01 0.01 0.01 0.02 0.00 0.00 0.00 0.00 0.00 0.00 0.00 0.00 0.00 0.00 0.00 0.00 0.00 0.00 0.00 0.00 0.00 0.00 0.00 0.00 0.00 0.00 0.00 0.00 0.00 0.00 0.00 0.00 0.00 0.00 0.00 0.00 0.00 0.00 0.01 0.01 0.01 0.01 0.03 0.08 0.06 0.03 0.05 0.05 0.08 0.07 0.05 0.06 0.04 0.06 0.16 0.12 0.10 0.09 0.12 0.16 0.15 0.17
0.00 0.00 0.00 0.00 0.00 0.00 0.00 0.01 0.01 0.01 0.02 0.01 0.01 0.00 0.00 0.00 0.00 0.00 0.00 0.00 0.00 0.00 0.00 0.00 0.00 0.00 0.00 0.00 0.00 0.00 0.00 0.00 0.00 0.00 0.00 0.00 0.00 0.00 0.00 0.00 0.00 0.00 0.00 0.00 0.00 0.00 0.00 0.00 0.00 0.00 0.00 0.00 0.00 0.02 0.05 0.06 0.06 0.05 0.04 0.09 0.09 0.08 0.03 0.04 0.03 0.05 0.06 0.04 0.04 0.07 0.15 0.20 0.33 0.44
0.00 0.00 0.00 0.00 0.01 0.02 0.02 0.01 0.01 0.01 0.01 0.01 0.02 0.01 0.00 0.00 0.00 0.00 0.00 0.00 0.00 0.00 0.00 0.00 0.00 0.00 0.00 0.00 0.00 0.00 0.00 0.00 0.00 0.00 0.00 0.00 0.00 0.00 0.00 0.00 0.00 0.00 0.00 0.00 0.00 0.00 0.00 0.00 0.00 0.00 0.00 0.00 0.00 0.00 0.02 0.01 0.02 0.01 0.01 0.01 0.01 0.01 0.01 0.01 0.02 0.03 0.06 0.10 0.08 0.08 0.10 0.17 0.21 0.26
0.02 0.02 0.01 0.01 0.02 0.02 0.01 0.01 0.00 0.00 0.00 0.00 0.00 0.00 0.00 0.00 0.00 0.00 0.00 0.00 0.00 0.00 0.00 0.00 0.00 0.00 0.00 0.00 0.00 0.00 0.00 0.00 0.00 0.00 0.00 0.00 0.00 0.00 0.00 0.00 0.00 0.00 0.00 0.00 0.00 0.00 0.00 0.00 0.00 0.00 0.00 0.00 0.00 0.00 0.01 0.01 0.00 0.00 0.01 0.00 0.00 0.02 0.01 0.01 0.01 0.02 0.05 0.06 0.03 0.03 0.04 0.05 0.07 0.10
0.05 0.18 0.07 0.09 0.02 0.02 0.01 0.00 0.00 0.00 0.00 0.00 0.00 0.00 0.00 0.00 0.00 0.00 0.00 0.00 0.00 0.00 0.00 0.00 0.00 0.00 0.00 0.00 0.00 0.00 0.00 0.00 0.00 0.00 0.00 0.00 0.00 0.00 0.00 0.00 0.00 0.00 0.00 0.00 0.00 0.00 0.00 0.00 0.00 0.01 0.01 0.00 0.01 0.00 0.00 0.00 0.00 0.00 0.00 0.01 0.00 0.01 0.02 0.01 0.03 0.05 0.08 0.07 0.06 0.05 0.03 0.02 0.03 0.07
0.17 0.19 0.01 0.01 0.00 0.01 0.01 0.00 0.00 0.00 0.00 0.00 0.00 0.00 0.00 0.00 0.00 0.00 0.00 0.00 0.00 0.00 0.00 0.00 0.00 0.00 0.00 0.00 0.00 0.00 0.00 0.00 0.00 0.00 0.00 0.00 0.00 0.00 0.00 0.00 0.00 0.00 0.00 0.00 0.00 0.00 0.00 0.00 0.01 0.01 0.01 0.02 0.02 0.01 0.01 0.00 0.00 0.00 0.00 0.00 0.01 0.03 0.02 0.03 0.03 0.04 0.04 0.06 0.10 0.11 0.10 0.11 0.13 0.17
0.04 0.05 0.02 0.01 0.00 0.00 0.00 0.00 0.00 0.00 0.00 0.00 0.00 0.00 0.00 0.00 0.00 0.00 0.00 0.00 0.00 0.00 0.00 0.00 0.00 0.00 0.00 0.00 0.00 0.00 0.00 0.00 0.00 0.00 0.00 0.00 0.00 0.00 0.00 0.00 0.00 0.00 0.00 0.00 0.00 0.00 0.00 0.00 0.01 0.01 0.02 0.02 0.02 0.03 0.04 0.02 0.02 0.01 0.01 0.00 0.00 0.02 0.02 0.02 0.03 0.04 0.04 0.05 0.08 0.08 0.09 0.11 0.16 0.27
0.00 0.00 0.01 0.01 0.01 0.01 0.00 0.00 0.00 0.00 0.00 0.00 0.00 0.00 0.00 0.00 0.00 0.00 0.00 0.00 0.00 0.00 0.00 0.00 0.00 0.00 0.00 0.00 0.00 0.00 0.00 0.00 0.00 0.00 0.00 0.00 0.00 0.00 0.00 0.00 0.00 0.00 0.00 0.00 0.00 0.00 0.00 0.00 0.01 0.01 0.01 0.01 0.01 0.02 0.03 0.01 0.00 0.01 0.00 0.00 0.00 0.01 0.02 0.01 0.02 0.02 0.06 0.05 0.02 0.03 0.09 0.12 0.16 0.16
0.00 0.00 0.00 0.00 0.00 0.00 0.00 0.00 0.00 0.00 0.00 0.00 0.00 0.00 0.00 0.00 0.00 0.00 0.00 0.00 0.00 0.00 0.00 0.00 0.00 0.00 0.00 0.00 0.00 0.00 0.00 0.00 0.00 0.00 0.00 0.00 0.00 0.00 0.00 0.00 0.00 0.00 0.00 0.00 0.00 0.00 0.00 0.00 0.00 0.00 0.00 0.00 0.00 0.00 0.00 0.00 0.01 0.01 0.01 0.01 0.00 0.01 0.02 0.02 0.03 0.02 0.04 0.05 0.04 0.06 0.08 0.07 0.05 0.06
0.00 0.00 0.00 0.01 0.00 0.00 0.01 0.01 0.00 0.00 0.00 0.00 0.00 0.00 0.00 0.00 0.00 0.00 0.00 0.00 0.00 0.00 0.00 0.00 0.00 0.00 0.00 0.00 0.00 0.00 0.00 0.00 0.00 0.00 0.00 0.00 0.00 0.00 0.00 0.00 0.00 0.00 0.00 0.00 0.00 0.00 0.00 0.00 0.00 0.00 0.00 0.00 0.00 0.00 0.00 0.01 0.02 0.02 0.02 0.02 0.01 0.01 0.02 0.01 0.02 0.03 0.05 0.08 0.04 0.04 0.06 0.08 0.03 0.04
0.00 0.00 0.01 0.01 0.01 0.01 0.01 0.01 0.01 0.01 0.01 0.01 0.01 0.00 0.00 0.00 0.00 0.00 0.00 0.00 0.00 0.00 0.00 0.00 0.00 0.00 0.00 0.00 0.00 0.00 0.00 0.00 0.00 0.00 0.00 0.00 0.00 0.00 0.00 0.00 0.00 0.00 0.00 0.00 0.00 0.00 0.00 0.00 0.00 0.00 0.00 0.00 0.00 0.00 0.00 0.01 0.01 0.01 0.01 0.01 0.01 0.00 0.01 0.01 0.01 0.01 0.02 0.03 0.04 0.03 0.01 0.01 0.02 0.03
0.00 0.00 0.00 0.00 0.00 0.00 0.00 0.00 0.00 0.00 0.01 0.01 0.01 0.01 0.01 0.00 0.00 0.00 0.00 0.00 0.00 0.00 0.00 0.00 0.00 0.00 0.00 0.00 0.00 0.00 0.00 0.00 0.00 0.00 0.00 0.00 0.00 0.00 0.00 0.00 0.00 0.00 0.00 0.00 0.00 0.00 0.00 0.00 0.00 0.00 0.00 0.00 0.00 0.00 0.00 0.00 0.01 0.01 0.01 0.01 0.00 0.00 0.00 0.00 0.00 0.00 0.00 0.00 0.02 0.03 0.02 0.02 0.05 0.08
0.00 0.00 0.00 0.00 0.00 0.00 0.00 0.00 0.00 0.00 0.00 0.00 0.00 0.00 0.00 0.01 0.01 0.01 0.00 0.01 0.00 0.00 0.00 0.00 0.00 0.00 0.00 0.00 0.00 0.00 0.00 0.00 0.00 0.00 0.00 0.00 0.00 0.00 0.00 0.00 0.00 0.00 0.00 0.00 0.00 0.00 0.00 0.00 0.00 0.00 0.00 0.00 0.00 0.00 0.00 0.00 0.00 0.00 0.00 0.00 0.00 0.00 0.00 0.00 0.00 0.00 0.00 0.00 0.00 0.00 0.00 0.01 0.01 0.01
MSLP
1019.93 1020.01 1020.17 1020.41 1020.33 1020.17 1019.97 1020.09 1020.09 1020.17 1020.37 1020.49 1020.65 1020.89 1021.65 1022.09 1023.21 1023.53 1023.09 1022.29 1021.65 1020.25 1019.25 1019.93 1019.29 1018.93 1019.05 1019.17 1018.73 1018.89 1018.89 1018.69 1018.77 1018.77 1018.81 1018.81 1018.73 1018.69 1018.93 1019.05 1019.17 1019.33 1019.41 1019.45 1019.49 1019.49 1019.53 1019.57 1019.65 1019.69 1019.73 1019.81 1019.85 1019.89 1019.93 1020.01 1020.01 1020.05 1020.05 1020.09 1020.09 1020.09 1020.05 1020.05 1020.05 1020.05 1020.09 1020.13 1020.17 1020.21 1020.21 1020.21 1020.17 1020.17
1019.89 1019.81 1019.81 1019.89 1020.13 1019.89 1019.93 1019.93 1019.89 1019.97 1020.33 1020.49 1020.53 1020.65 1020.77 1021.13 1022.41 1022.65 1023.29 1022.61 1021.13 1020.81 1019.49 1019.09 1019.33 1019.09 1019.05 1018.85 1018.89 1018.61 1018.65 1018.45 1018.61 1018.57 1018.49 1018.41 1018.25 1018.25 1018.49 1018.61 1018.77 1018.89 1018.93 1018.97 1018.97 1019.01 1019.05 1019.09 1019.17 1019.21 1019.29 1019.37 1019.41 1019.45 1019.49 1019.53 1019.57 1019.61 1019.65 1019.69 1019.69 1019.69 1019.69 1019.69 1019.69 1019.73 1019.77 1019.85 1019.89 1019.97 1020.01 1020.01 1019.97 1019.97
1019.73 1019.89 1020.05 1019.85 1020.01 1019.81 1019.85 1019.73 1019.61 1019.65 1019.97 1020.25 1020.25 1020.37 1020.41 1020.81 1021.21 1021.85 1022.21 1022.97 1020.89 1019.85 1020.41 1019.25 1018.33 1018.65 1018.69 1018.41 1018.33 1018.25 1018.21 1018.17 1018.25 1018.25 1018.17 1018.05 1017.93 1018.05 1018.09 1018.25 1018.33 1018.45 1018.49 1018.49 1018.49 1018.49 1018.53 1018.57 1018.65 1018.73 1018.77 1018.81 1018.85 1018.89 1018.97 1019.01 1019.05 1019.09 1019.13 1019.17 1019.17 1019.21 1019.25 1019.29 1019.33 1019.37 1019.45 1019.53 1019.61 1019.69 1019.77 1019.81 1019.81 1019.81
1019.49 1019.73 1019.97 1019.89 1019.89 1019.73 1019.77 1019.77 1019.65 1019.65 1019.69 1019.77 1020.01 1020.09 1020.25 1020.41 1020.61 1020.97 1021.69 1022.25 1021.85 1020.01 1019.81 1019.37 1018.85 1018.37 1018.37 1018.21 1018.61 1018.49 1018.17 1017.77 1017.93 1017.89 1017.81 1017.61 1017.69 1017.73 1017.57 1017.57 1017.77 1017.85 1017.89 1017.85 1017.85 1017.89 1017.93 1018.01 1018.05 1018.13 1018.17 1018.21 1018.25 1018.33 1018.33 1018.37 1018.45 1018.53 1018.57 1018.57 1018.61 1018.69 1018.73 1018.81 1018.89 1018.97 1019.09 1019.17 1019.33 1019.45 1019.57 1019.61 1019.65 1019.65
1019.33 1019.53 1019.73 1019.73 1019.61 1019.45 1019.77 1019.65 1019.49 1019.41 1019.45 1019.57 1019.73 1019.73 1019.97 1020.25 1020.13 1020.53 1021.21 1021.77 1021.41 1020.17 1019.13 1019.17 1018.93 1018.25 1018.17 1018.41 1018.01 1018.33 1018.09 1017.89 1017.61 1017.53 1017.45 1017.33 1017.33 1017.17 1017.05 1016.81 1016.89 1017.13 1017.17 1017.21 1017.21 1017.25 1017.29 1017.37 1017.41 1017.45 1017.45 1017.49 1017.53 1017.61 1017.65 1017.69 1017.81 1017.89 1017.93 1017.97 1018.05 1018.13 1018.25 1018.37 1018.45 1018.57 1018.69 1018.81 1018.97 1019.17 1019.33 1019.41 1019.45 1019.45
1019.21 1019.29 1019.61 1019.61 1019.45 1019.29 1019.57 1019.49 1019.41 1019.21 1019.13 1019.21 1019.49 1019.57 1019.73 1019.85 1019.89 1019.69 1020.57 1020.85 1020.97 1020.89 1019.57 1019.33 1018.41 1018.37 1017.93 1018.69 1017.77 1018.17 1018.09 1017.69 1017.37 1017.41 1017.21 1016.93 1016.85 1016.85 1016.57 1016.41 1016.13 1016.21 1016.37 1016.45 1016.49 1016.53 1016.61 1016.65 1016.69 1016.69 1016.69 1016.73 1016.77 1016.81 1016.89 1016.93 1017.05 1017.13 1017.21 1017.29 1017.45 1017.65 1017.77 1017.93 1018.01 1018.13 1018.25 1018.37 1018.53 1018.69 1018.89 1019.05 1019.13 1019.17
1019.01 1019.21 1019.29 1019.29 1019.13 1018.97 1019.29 1019.41 1019.25 1018.89 1018.97 1018.85 1019.09 1019.21 1019.09 1019.45 1019.41 1019.25 1019.53 1020.25 1020.69 1020.41 1019.85 1018.93 1018.85 1018.41 1018.01 1018.13 1017.89 1017.49 1017.33 1017.21 1017.13 1017.33 1017.13 1016.81 1016.37 1016.13 1016.13 1016.01 1015.61 1015.45 1015.69 1015.81 1015.85 1015.85 1015.85 1015.93 1016.01 1016.09 1016.13 1016.17 1016.17 1016.21 1016.25 1016.29 1016.41 1016.49 1016.57 1016.73 1016.93 1017.09 1017.25 1017.45 1017.53 1017.61 1017.69 1017.85 1018.01 1018.17 1018.33 1018.49 1018.65 1018.81
1018.77 1018.89 1019.05 1018.93 1018.73 1018.69 1019.09 1019.13 1019.05 1018.81 1018.73 1018.85 1018.97 1019.05 1018.97 1019.05 1019.17 1019.01 1019.01 1019.29 1019.85 1019.81 1020.01 1019.05 1018.85 1018.21 1018.25 1017.77 1017.17 1016.97 1016.89 1017.01 1016.93 1016.81 1016.57 1016.25 1016.21 1015.89 1015.57 1015.45 1015.37 1015.09 1015.25 1015.37 1015.29 1015.01 1014.97 1015.13 1015.29 1015.57 1015.61 1015.49 1015.57 1015.65 1015.65 1015.77 1015.93 1016.05 1016.17 1016.41 1016.57 1016.57 1016.73 1016.81 1016.93 1017.05 1017.17 1017.33 1017.49 1017.65 1017.77 1017.97 1018.13 1018.37
1018.33 1018.45 1018.57 1018.45 1018.41 1018.53 1018.93 1018.85 1018.85 1018.61 1018.73 1018.65 1018.69 1018.85 1018.73 1018.77 1018.69 1018.73 1018.81 1018.93 1019.01 1019.45 1019.69 1019.21 1018.45 1018.09 1017.97 1017.53 1017.29 1016.97 1017.33 1016.93 1016.61 1016.37 1016.45 1016.29 1016.05 1015.73 1015.29 1014.93 1014.57 1014.53 1014.57 1014.61 1014.29 1013.97 1014.29 1014.41 1014.73 1015.01 1014.89 1014.93 1015.01 1015.05 1015.13 1015.29 1015.41 1015.53 1015.73 1015.85 1015.77 1015.89 1016.09 1016.21 1016.33 1016.57 1016.69 1016.85 1016.97 1017.05 1017.17 1017.41 1017.69 1017.97
1017.89 1018.05 1018.09 1018.05 1018.05 1018.25 1018.57 1018.61 1018.41 1018.33 1018.45 1018.41 1018.53 1018.61 1018.57 1018.41 1018.41 1018.65 1018.65 1018.65 1018.85 1019.05 1019.09 1018.97 1018.77 1018.09 1018.13 1017.81 1017.45 1017.01 1016.93 1017.21 1017.17 1016.73 1016.13 1015.73 1015.57 1015.65 1015.49 1014.89 1014.33 1013.93 1013.73 1013.69 1013.53 1013.81 1013.97 1014.01 1014.25 1014.29 1014.33 1014.53 1014.57 1014.69 1014.81 1014.93 1015.05 1015.17 1015.25 1015.25 1015.33 1015.41 1015.45 1015.53 1015.73 1016.01 1016.17 1016.41 1016.33 1016.53 1016.85 1017.13 1017.29 1017.61
1017.33 1017.41 1017.53 1017.61 1017.61 1017.81 1017.93 1018.09 1018.13 1018.09 1018.17 1018.21 1018.25 1018.21 1018.33 1018.25 1018.37 1018.45 1018.45 1018.41 1018.53 1018.61 1018.73 1018.41 1018.17 1018.13 1017.53 1017.49 1017.77 1016.85 1016.49 1016.61 1016.85 1017.25 1017.01 1016.65 1015.65 1015.29 1015.29 1015.29 1014.49 1013.93 1013.57 1013.17 1013.13 1013.05 1012.97 1013.01 1013.21 1013.29 1013.53 1013.69 1013.85 1013.97 1014.21 1014.37 1014.53 1014.65 1014.69 1014.69 1014.77 1014.73 1014.73 1015.01 1015.41 1015.29 1015.05 1015.13 1015.57 1015.97 1016.41 1016.57 1016.85 1017.13
1016.85 1016.89 1016.89 1016.89 1016.93 1017.13 1017.25 1017.45 1017.53 1017.61 1017.85 1017.77 1018.01 1017.77 1017.89 1018.01 1018.21 1018.33 1018.17 1018.21 1018.25 1018.29 1018.25 1018.25 1018.17 1017.77 1017.73 1017.33 1016.77 1016.41 1016.53 1016.89 1016.77 1016.45 1016.57 1016.77 1016.13 1015.53 1014.93 1014.73 1014.81 1014.17 1013.81 1013.69 1013.17 1012.69 1012.53 1012.49 1012.53 1012.65 1012.73 1012.93 1013.09 1013.17 1013.33 1013.45 1013.61 1013.81 1013.85 1014.01 1013.89 1013.93 1014.25 1014.53 1014.53 1014.25 1014.41 1014.81 1015.21 1015.57 1015.77 1016.13 1016.49 1016.77
1016.69 1016.61 1016.45 1016.37 1016.33 1016.37 1016.65 1016.85 1017.05 1017.09 1017.21 1017.53 1017.85 1017.65 1017.61 1017.85 1018.01 1018.09 1018.09 1018.09 1018.17 1018.13 1018.13 1018.17 1017.73 1017.73 1017.53 1017.17 1017.05 1016.97 1016.89 1017.01 1016.93 1016.05 1015.85 1016.05 1015.61 1015.17 1014.93 1014.41 1013.93 1013.89 1013.93 1013.29 1012.93 1013.01 1012.65 1012.41 1012.05 1011.77 1011.77 1011.73 1012.05 1012.17 1012.29 1012.21 1012.57 1012.85 1013.21 1013.01 1012.81 1012.93 1013.21 1013.45 1013.33 1013.45 1013.81 1014.29 1014.69 1015.01 1015.29 1015.65 1016.01 1016.25
1016.37 1016.29 1016.17 1015.93 1016.09 1016.33 1016.53 1016.73 1016.93 1017.09 1017.21 1017.29 1017.29 1017.37 1017.49 1017.61 1017.81 1017.89 1017.97 1018.01 1017.93 1017.97 1018.13 1017.97 1017.77 1017.73 1017.45 1016.93 1016.57 1016.61 1016.25 1015.77 1015.45 1015.57 1015.61 1016.05 1015.41 1015.09 1015.01 1014.45 1013.97 1013.33 1013.45 1013.37 1013.17 1012.81 1012.45 1012.21 1011.85 1011.77 1011.85 1011.17 1011.17 1011.09 1011.09 1011.21 1011.53 1012.29 1012.13 1011.93 1012.05 1012.41 1012.73 1012.53 1012.57 1012.93 1013.41 1013.69 1013.89 1014.21 1014.61 1014.97 1015.37 1015.69
1016.33 1016.01 1015.89 1015.81 1015.85 1016.09 1016.37 1016.49 1016.73 1016.85 1017.01 1017.09 1017.17 1017.21 1017.33 1017.41 1017.61 1017.73 1017.77 1017.61 1017.41 1017.65 1017.69 1017.37 1017.41 1017.37 1017.29 1016.85 1016.37 1016.37 1015.97 1015.61 1015.61 1015.57 1015.45 1015.57 1015.45 1015.73 1015.93 1015.61 1013.93 1013.09 1013.25 1013.53 1013.33 1012.53 1012.21 1012.17 1012.29 1011.65 1011.29 1010.85 1010.37 1010.33 1010.41 1010.49 1011.09 1011.29 1011.05 1010.89 1011.01 1011.57 1011.57 1011.61 1012.05 1012.61 1012.93 1013.05 1013.21 1013.53 1013.93 1014.25 1014.57 1014.85
1015.93 1015.89 1015.73 1015.53 1015.41 1015.49 1015.61 1015.73 1016.01 1016.45 1016.65 1016.85 1016.93 1016.97 1017.05 1017.21 1017.25 1017.29 1017.53 1017.69 1017.69 1017.49 1017.49 1017.41 1017.17 1017.13 1017.05 1016.69 1016.29 1016.05 1015.77 1015.69 1015.49 1015.45 1015.45 1015.41 1015.49 1015.49 1015.45 1015.05 1014.93 1013.21 1012.77 1013.49 1013.65 1012.73 1011.61 1011.85 1011.77 1011.45 1010.89 1010.45 1010.09 1009.81 1010.01 1010.29 1010.61 1010.77 1010.73 1010.29 1010.21 1010.65 1010.69 1010.93 1011.29 1011.81 1012.21 1012.53 1012.73 1013.01 1013.33 1013.61 1013.89 1014.25
1015.57 1015.53 1015.57 1015.53 1015.29 1015.05 1015.29 1015.53 1015.57 1015.69 1015.93 1016.29 1016.49 1016.57 1016.69 1016.81 1016.97 1017.05 1017.17 1017.21 1017.29 1017.09 1017.33 1017.33 1017.09 1016.85 1016.57 1016.53 1016.13 1015.65 1015.57 1015.21 1015.69 1015.49 1015.57 1015.21 1014.97 1014.81 1014.89 1014.45 1013.81 1013.05 1012.65 1013.33 1013.61 1013.17 1011.33 1011.45 1011.53 1011.25 1010.05 1009.61 1009.29 1009.21 1009.33 1009.61 1010.01 1010.29 1010.25 1010.05 1009.81 1009.97 1010.05 1010.25 1010.65 1011.09 1011.53 1011.93 1012.29 1012.49 1012.69 1012.93 1013.25 1013.65
1015.13 1015.21 1015.33 1015.37 1015.33 1015.01 1015.01 1015.09 1015.25 1015.41 1015.57 1015.65 1016.01 1016.37 1016.49 1016.29 1016.13 1016.37 1016.61 1016.77 1016.93 1017.09 1017.01 1016.97 1017.01 1016.21 1015.85 1016.17 1015.73 1015.25 1015.05 1015.45 1015.61 1015.45 1015.37 1015.01 1014.81 1014.57 1014.33 1013.53 1013.29 1012.45 1012.33 1013.17 1013.17 1013.09 1011.57 1010.81 1011.01 1010.89 1009.89 1009.33 1009.05 1008.73 1008.73 1008.97 1009.29 1009.61 1009.73 1009.69 1009.61 1009.53 1009.61 1009.81 1010.13 1010.49 1010.81 1011.17 1011.57 1011.97 1012.21 1012.33 1012.61 1013.01
1014.69 1014.69 1014.73 1014.85 1014.85 1014.77 1014.81 1014.69 1014.85 1015.09 1015.21 1015.41 1015.45 1015.41 1015.33 1015.25 1015.17 1015.17 1015.29 1015.49 1015.69 1015.97 1016.05 1016.05 1015.97 1015.77 1015.53 1015.37 1015.17 1014.85 1014.61 1014.69 1014.57 1014.49 1014.65 1014.49 1014.29 1013.73 1013.05 1012.81 1012.57 1012.37 1011.85 1011.97 1012.45 1013.13 1011.21 1010.33 1010.69 1010.21 1009.45 1008.81 1008.69 1008.25 1008.21 1008.37 1008.61 1008.85 1009.09 1009.17 1009.13 1009.13 1009.17 1009.41 1009.65 1009.89 1010.21 1010.57 1011.01 1011.37 1011.73 1012.01 1012.21 1012.61
1014.25 1014.25 1014.33 1014.45 1014.45 1014.41 1014.45 1014.37 1014.61 1014.85 1014.93 1015.21 1015.37 1015.45 1015.29 1015.05 1014.69 1014.41 1014.01 1013.97 1014.01 1014.17 1014.33 1014.49 1014.61 1014.53 1014.37 1014.41 1014.53 1014.41 1014.33 1014.13 1013.97 1013.85 1013.77 1013.85 1013.93 1013.93 1013.85 1013.61 1012.61 1012.57 1011.33 1011.01 1011.49 1011.73 1011.01 1009.85 1010.21 1009.65 1009.09 1008.85 1008.97 1008.33 1008.13 1007.85 1008.05 1008.25 1008.45 1008.53 1008.57 1008.53 1008.61 1008.85 1009.05 1009.29 1009.65 1010.01 1010.37 1010.81 1011.29 1011.73 1011.97 1012.21
1013.93 1013.89 1013.85 1013.97 1014.01 1013.97 1014.01 1013.97 1014.33 1014.69 1015.01 1015.25 1015.41 1015.45 1015.33 1015.01 1014.73 1014.45 1013.73 1013.53 1013.69 1013.81 1013.85 1013.81 1013.85 1013.97 1014.13 1014.25 1014.29 1014.37 1014.33 1014.37 1014.21 1014.49 1014.97 1015.05 1014.41 1014.57 1014.61 1013.77 1013.17 1012.37 1011.65 1011.13 1011.09 1011.33 1011.25 1010.29 1010.13 1009.81 1009.01 1008.77 1008.65 1008.33 1007.93 1007.41 1007.21 1007.65 1007.77 1007.93 1008.01 1008.01 1008.09 1008.17 1008.45 1008.73 1009.05 1009.41 1009.85 1010.25 1010.73 1011.17 1011.61 1011.97
1013.53 1013.41 1013.53 1013.61 1013.61 1013.65 1013.57 1013.57 1014.01 1014.41 1014.85 1015.13 1015.21 1015.25 1015.21 1015.13 1014.93 1014.45 1013.77 1013.33 1013.01 1013.13 1013.41 1013.69 1013.89 1014.05 1014.17 1014.21 1014.21 1014.25 1014.21 1014.13 1014.33 1014.93 1015.33 1014.17 1013.89 1014.17 1014.17 1014.25 1013.25 1012.05 1011.57 1011.17 1010.33 1011.33 1011.21 1010.21 1009.89 1009.89 1008.97 1008.53 1008.13 1007.81 1007.37 1007.09 1006.81 1007.05 1007.41 1007.45 1007.45 1007.49 1007.57 1007.65 1007.81 1008.21 1008.53 1008.89 1009.21 1009.65 1010.17 1010.69 1011.33 1012.01
1013.13 1013.05 1013.01 1013.25 1013.29 1013.29 1013.17 1013.41 1013.69 1014.17 1014.49 1014.69 1014.85 1014.85 1014.93 1015.05 1014.93 1014.33 1013.81 1013.81 1013.65 1013.49 1013.73 1013.85 1013.93 1014.05 1013.93 1013.85 1013.81 1013.61 1013.49 1013.53 1013.69 1013.93 1013.85 1013.41 1013.65 1013.77 1013.45 1013.29 1013.01 1012.73 1011.61 1010.61 1010.25 1011.81 1010.97 1010.73 1009.85 1009.93 1009.65 1009.41 1008.01 1007.25 1006.97 1007.01 1006.93 1006.81 1006.93 1007.25 1007.41 1007.37 1007.41 1007.37 1007.53 1007.89 1008.21 1008.45 1008.73 1009.09 1009.57 1010.17 1011.09 1011.53
1012.85 1012.69 1012.65 1012.61 1012.93 1013.09 1013.21 1013.29 1013.45 1013.85 1014.29 1014.45 1014.41 1014.41 1014.61 1014.69 1014.77 1013.69 1013.45 1013.41 1013.61 1013.85 1013.89 1013.85 1013.61 1013.53 1013.21 1013.05 1012.89 1012.81 1012.85 1012.89 1012.89 1013.01 1012.97 1012.93 1012.97 1013.29 1013.29 1013.09 1013.05 1013.05 1011.93 1010.49 1010.09 1011.21 1010.69 1010.37 1010.09 1009.45 1009.73 1009.97 1009.01 1007.65 1007.17 1007.05 1006.85 1006.81 1006.77 1006.89 1006.89 1006.85 1007.21 1007.33 1007.45 1007.61 1007.85 1008.13 1008.37 1008.65 1009.05 1009.73 1010.45 1010.81
1012.57 1012.45 1012.29 1011.97 1012.13 1012.69 1012.93 1013.09 1013.25 1013.53 1014.01 1014.37 1014.37 1014.29 1014.41 1014.25 1013.89 1013.81 1014.01 1013.81 1013.81 1013.89 1013.89 1013.85 1013.73 1013.49 1013.17 1012.97 1012.73 1012.53 1012.25 1012.13 1011.97 1012.05 1012.17 1012.21 1012.13 1012.41 1012.61 1012.57 1012.41 1012.01 1011.01 1010.25 1010.21 1010.89 1011.17 1010.49 1010.21 1009.69 1009.45 1009.25 1008.65 1008.01 1007.21 1007.13 1006.73 1006.81 1006.61 1006.61 1006.81 1006.53 1006.69 1006.85 1006.89 1007.01 1007.49 1007.89 1008.17 1008.37 1008.73 1009.29 1009.77 1009.85
1012.05 1011.97 1011.81 1011.77 1011.81 1012.25 1012.61 1012.89 1013.13 1013.37 1013.69 1014.21 1014.53 1014.17 1013.97 1013.85 1014.05 1014.41 1014.25 1014.13 1014.09 1013.93 1013.85 1013.73 1013.69 1013.57 1013.53 1013.49 1013.13 1012.93 1012.73 1012.33 1011.97 1011.93 1011.81 1011.69 1011.69 1011.61 1011.65 1012.09 1012.49 1012.49 1011.65 1010.41 1010.49 1010.85 1011.05 1010.85 1010.45 1010.33 1009.89 1009.73 1008.73 1008.53 1007.93 1007.41 1006.93 1006.33 1006.13 1006.21 1006.37 1006.25 1006.21 1006.41 1006.53 1006.61 1006.61 1007.01 1007.57 1007.93 1008.01 1008.33 1008.73 1009.01
1011.69 1011.37 1011.41 1011.37 1011.53 1012.05 1012.41 1012.69 1012.93 1013.21 1013.49 1014.17 1014.09 1013.85 1013.81 1014.05 1014.45 1014.61 1014.29 1014.21 1014.25 1014.21 1014.05 1014.01 1014.17 1014.05 1013.85 1013.57 1013.29 1012.97 1012.73 1012.33 1012.25 1012.33 1012.21 1012.17 1012.05 1011.89 1011.65 1011.53 1011.53 1011.57 1011.01 1010.65 1010.49 1010.61 1010.81 1010.73 1010.21 1010.37 1010.05 1009.57 1009.41 1008.45 1008.33 1007.93 1007.17 1006.57 1006.45 1006.21 1006.21 1006.13 1006.05 1006.05 1006.29 1006.21 1006.09 1006.37 1006.73 1007.21 1008.01 1008.41 1008.57 1008.61
1010.97 1011.13 1011.05 1011.13 1011.45 1011.93 1012.25 1012.57 1012.89 1013.13 1013.49 1013.49 1013.49 1013.89 1014.17 1014.37 1014.45 1014.37 1014.25 1014.21 1014.13 1014.17 1014.29 1014.41 1014.25 1013.81 1013.33 1013.21 1013.09 1012.89 1012.77 1012.77 1012.77 1012.69 1012.49 1012.29 1012.09 1011.97 1011.77 1011.53 1011.41 1011.17 1011.01 1010.85 1010.57 1010.41 1010.41 1010.41 1010.05 1009.77 1009.73 1009.65 1009.49 1009.21 1008.41 1007.49 1007.25 1006.93 1006.81 1006.09 1005.89 1005.89 1005.81 1005.81 1005.69 1005.69 1005.89 1006.17 1006.65 1007.17 1008.01 1008.85 1009.29 1009.53
1010.77 1011.37 1011.65 1011.85 1012.05 1012.33 1012.61 1012.89 1013.13 1013.29 1013.37 1013.53 1013.89 1014.13 1014.21 1014.29 1013.93 1013.89 1013.85 1013.77 1013.77 1014.17 1014.37 1014.09 1013.53 1013.21 1013.05 1012.93 1012.89 1012.81 1012.93 1012.93 1012.73 1012.61 1012.37 1012.21 1012.09 1011.81 1011.57 1011.45 1011.25 1011.05 1010.73 1010.37 1010.21 1010.05 1009.97 1010.05 1010.01 1009.69 1009.61 1009.41 1009.41 1008.85 1008.65 1007.97 1007.41 1006.89 1006.61 1006.53 1006.29 1005.81 1005.77 1005.57 1005.41 1005.37 1005.49 1005.77 1006.09 1006.81 1007.21 1007.53 1008.21 1008.69
1011.93 1012.01 1012.21 1012.41 1012.49 1012.57 1012.69 1012.61 1012.61 1012.57 1012.85 1013.37 1013.73 1014.01 1014.09 1013.81 1013.45 1013.29 1013.37 1013.61 1013.93 1014.01 1013.53 1013.29 1013.49 1013.21 1012.89 1012.89 1012.81 1012.93 1012.89 1012.97 1012.89 1012.77 1012.81 1012.65 1012.33 1012.13 1012.09 1011.97 1011.57 1011.01 1010.49 1010.25 1010.09 1010.01 1010.09 1010.17 1010.09 1009.89 1009.73 1009.37 1009.09 1008.77 1008.29 1007.81 1007.33 1006.89 1006.45 1006.33 1005.81 1005.33 1005.25 1005.29 1005.21 1005.05 1005.17 1005.61 1005.73 1006.01 1006.29 1006.73 1006.97 1007.73
1011.85 1012.21 1012.09 1012.17 1012.41 1012.33 1012.57 1012.69 1012.61 1012.73 1013.01 1013.17 1013.41 1013.33 1013.21 1012.97 1012.93 1013.05 1013.29 1013.33 1013.33 1013.41 1013.65 1013.57 1013.37 1013.13 1012.97 1012.85 1012.97 1012.97 1012.97 1012.97 1012.77 1012.69 1012.89 1012.85 1012.61 1012.37 1012.21 1012.25 1011.85 1011.21 1010.69 1010.25 1010.13 1010.17 1010.25 1010.17 1010.01 1009.89 1009.93 1009.45 1008.97 1008.61 1007.97 1007.65 1007.41 1006.89 1006.17 1005.69 1005.69 1006.29 1005.25 1005.01 1004.97 1004.89 1005.01 1005.25 1005.41 1005.49 1005.89 1006.53 1006.97 1007.33
1011.41 1011.73 1012.17 1012.13 1012.09 1012.33 1012.41 1012.41 1012.33 1012.29 1012.33 1012.29 1012.29 1012.21 1012.29 1012.61 1012.69 1012.97 1013.33 1013.49 1013.53 1013.53 1013.41 1013.41 1013.37 1013.33 1013.25 1013.21 1013.01 1012.85 1012.77 1012.85 1012.93 1012.89 1013.05 1013.13 1012.93 1012.57 1012.33 1012.25 1011.93 1011.41 1011.09 1010.73 1010.41 1010.17 1010.09 1010.21 1010.13 1009.89 1009.73 1009.45 1009.13 1008.37 1007.89 1007.57 1007.25 1006.65 1006.29 1005.81 1005.53 1005.17 1004.85 1004.85 1004.89 1004.81 1004.57 1004.77 1005.25 1005.61 1005.81 1006.09 1006.49 1007.13
1011.05 1011.29 1011.65 1011.85 1011.93 1012.01 1012.17 1012.21 1012.21 1012.09 1012.09 1012.29 1012.33 1012.41 1012.61 1012.85 1013.05 1013.21 1013.05 1013.29 1013.45 1013.45 1013.57 1013.61 1013.65 1013.41 1013.17 1013.17 1013.01 1012.97 1013.01 1013.21 1013.21 1013.01 1013.21 1013.01 1012.97 1012.65 1012.33 1012.29 1011.89 1011.81 1011.73 1011.29 1010.85 1010.53 1010.61 1010.57 1010.33 1010.09 1009.69 1009.17 1008.65 1008.21 1008.13 1008.17 1007.97 1007.85 1007.69 1007.13 1006.65 1006.37 1005.77 1005.13 1004.85 1004.65 1004.53 1004.97 1005.33 1005.49 1005.85 1006.05 1006.25 1006.65
1010.61 1010.97 1011.13 1011.17 1011.45 1011.69 1011.85 1012.05 1012.01 1012.09 1012.49 1012.89 1013.21 1013.21 1013.45 1013.41 1013.01 1013.01 1013.05 1013.01 1013.13 1013.45 1013.65 1013.53 1013.37 1013.45 1013.37 1013.33 1013.29 1013.29 1013.37 1013.33 1013.21 1013.05 1013.17 1013.09 1012.81 1012.77 1012.45 1012.25 1012.01 1011.77 1011.65 1011.33 1011.05 1011.01 1010.97 1010.77 1010.49 1010.17 1009.65 1009.09 1008.29 1008.41 1008.57 1008.73 1008.85 1008.57 1008.37 1007.85 1007.29 1006.77 1006.09 1005.57 1005.13 1004.81 1004.77 1005.01 1005.25 1005.73 1006.13 1006.57 1006.85 1007.17
1010.21 1010.45 1010.85 1010.97 1010.97 1011.17 1011.29 1011.57 1011.81 1012.29 1012.81 1013.09 1013.29 1013.33 1013.09 1012.89 1013.05 1013.13 1012.85 1012.97 1013.13 1013.33 1013.37 1013.41 1013.33 1013.37 1013.41 1013.49 1013.45 1013.57 1013.53 1013.53 1013.29 1012.93 1012.81 1012.73 1012.65 1012.53 1012.37 1012.29 1012.21 1012.01 1011.69 1011.41 1011.25 1010.97 1010.77 1010.69 1010.65 1010.49 1010.01 1009.37 1008.77 1008.53 1008.77 1008.69 1008.89 1008.97 1008.73 1008.33 1007.77 1007.33 1006.69 1005.97 1005.53 1005.25 1005.13 1005.13 1005.29 1005.81 1006.37 1006.85 1007.29 1007.53
1009.93 1010.01 1010.37 1010.65 1010.93 1011.37 1011.85 1012.09 1012.25 1012.45 1012.57 1012.61 1012.61 1012.65 1012.73 1012.73 1012.77 1012.73 1012.93 1013.37 1013.29 1013.29 1013.37 1013.41 1013.45 1013.41 1013.37 1013.41 1013.49 1013.49 1013.41 1013.41 1013.13 1013.01 1012.89 1012.69 1012.61 1012.49 1012.25 1012.29 1012.21 1011.97 1011.73 1011.49 1011.25 1010.81 1010.69 1010.69 1010.81 1011.01 1010.81 1010.17 1009.77 1009.41 1009.05 1009.01 1009.37 1009.65 1009.57 1009.05 1008.25 1007.61 1006.97 1006.37 1005.93 1005.69 1005.45 1005.45 1005.49 1005.81 1006.45 1007.05 1007.45 1007.85
1010.13 1010.45 1010.81 1011.21 1011.53 1011.77 1012.05 1012.21 1012.25 1012.09 1011.85 1012.01 1012.13 1012.21 1012.37 1012.57 1012.73 1012.85 1013.33 1013.53 1013.45 1013.41 1013.53 1013.41 1013.25 1013.33 1013.37 1013.37 1013.37 1013.21 1013.05 1013.05 1013.09 1012.93 1012.81 1012.57 1012.53 1012.45 1012.45 1012.37 1012.25 1012.09 1011.81 1011.45 1011.05 1010.89 1010.73 1010.77 1011.01 1011.09 1011.09 1010.69 1010.45 1010.37 1009.89 1009.37 1009.73 1009.97 1010.13 1009.73 1008.73 1007.93 1007.33 1006.85 1006.49 1006.25 1006.17 1005.97 1006.01 1006.21 1006.65 1007.17 1007.77 1008.13
1010.21 1010.09 1010.41 1010.81 1011.09 1011.41 1011.69 1011.89 1012.09 1012.21 1012.17 1012.13 1012.13 1012.33 1012.41 1012.49 1012.89 1013.29 1013.37 1013.37 1013.41 1013.21 1013.33 1013.13 1013.13 1013.29 1013.21 1013.17 1013.13 1013.05 1012.85 1012.73 1012.77 1012.73 1012.61 1012.49 1012.65 1012.65 1012.69 1012.73 1012.45 1012.13 1011.81 1011.25 1010.93 1010.89 1010.89 1011.01 1011.25 1011.29 1011.25 1011.25 1011.05 1010.81 1010.41 1009.85 1009.65 1009.69 1010.09 1010.13 1009.33 1008.25 1007.61 1007.29 1007.13 1006.97 1007.05 1006.85 1006.89 1007.05 1007.25 1007.77 1008.21 1008.53
1010.61 1011.21 1011.53 1011.29 1010.89 1010.89 1011.21 1011.65 1011.93 1012.13 1012.13 1012.17 1012.25 1012.45 1012.65 1012.81 1013.05 1013.25 1013.21 1013.29 1013.53 1013.37 1013.25 1013.21 1013.21 1013.25 1013.25 1013.01 1012.89 1012.81 1012.73 1012.81 1012.77 1012.65 1012.57 1012.45 1012.69 1012.85 1012.85 1012.69 1012.45 1012.09 1011.73 1011.41 1011.05 1010.93 1010.97 1011.13 1011.29 1011.41 1011.45 1011.45 1011.53 1011.33 1011.21 1010.89 1010.57 1010.25 1010.17 1010.45 1009.81 1008.57 1008.17 1007.89 1007.69 1007.57 1007.65 1007.69 1007.73 1007.77 1008.09 1008.37 1008.73 1009.09
1010.69 1011.01 1011.45 1011.77 1011.77 1011.53 1011.57 1011.77 1011.97 1012.13 1012.21 1012.21 1012.33 1012.49 1012.73 1012.97 1012.97 1013.01 1013.17 1013.41 1013.57 1013.61 1013.29 1013.25 1013.41 1013.37 1012.97 1012.81 1012.69 1012.41 1012.45 1012.61 1012.61 1012.53 1012.57 1012.49 1012.61 1012.69 1012.77 1012.69 1012.33 1011.97 1011.73 1011.61 1011.45 1011.17 1011.25 1011.41 1011.49 1011.65 1011.49 1011.37 1011.17 1010.85 1010.61 1010.57 1010.69 1010.77 1010.65 1010.49 1010.33 1009.73 1009.09 1008.37 1008.25 1008.25 1008.41 1008.37 1008.29 1008.45 1008.97 1009.13 1009.53 1009.85
1010.81 1011.17 1011.41 1011.37 1011.41 1011.53 1011.77 1011.85 1011.89 1011.97 1012.13 1012.37 1012.65 1013.01 1012.93 1013.13 1013.05 1013.01 1013.17 1013.37 1013.41 1013.41 1013.21 1013.09 1013.17 1013.17 1012.85 1012.77 1012.61 1012.53 1012.49 1012.45 1012.41 1012.37 1012.45 1012.41 1012.53 1012.61 1012.77 1012.65 1012.13 1011.77 1011.77 1011.77 1011.69 1011.45 1011.57 1011.49 1011.41 1011.09 1010.85 1010.73 1010.69 1010.45 1010.61 1010.81 1011.05 1011.13 1011.05 1010.81 1010.61 1010.29 1009.81 1009.37 1009.01 1008.77 1008.89 1008.89 1008.81 1008.89 1009.17 1009.45 1009.65 1010.09
1011.01 1011.25 1011.29 1011.17 1011.29 1011.49 1011.73 1011.89 1011.85 1011.93 1012.13 1012.37 1012.57 1012.93 1013.29 1013.33 1013.41 1013.77 1013.85 1014.01 1013.57 1013.41 1013.13 1012.69 1012.45 1012.65 1012.49 1012.65 1012.49 1012.41 1012.37 1012.45 1012.41 1012.41 1012.41 1012.37 1012.29 1012.25 1012.25 1012.09 1012.09 1011.77 1011.81 1011.89 1011.77 1011.49 1011.21 1011.13 1010.93 1010.49 1010.53 1010.57 1010.69 1010.97 1011.45 1011.41 1011.45 1011.53 1011.49 1011.25 1010.85 1010.61 1010.41 1010.09 1009.81 1009.69 1009.65 1009.45 1009.25 1009.41 1009.65 1009.89 1010.01 1010.45
1011.45 1011.69 1011.97 1012.13 1012.17 1012.25 1012.25 1012.41 1012.49 1012.57 1012.77 1012.97 1013.01 1013.09 1012.93 1012.93 1013.13 1013.49 1012.69 1012.77 1013.29 1012.89 1012.01 1012.41 1012.69 1012.53 1012.49 1012.41 1012.41 1012.41 1012.33 1012.25 1012.29 1012.29 1012.29 1012.25 1012.29 1012.29 1012.13 1012.01 1012.01 1011.73 1011.53 1011.49 1011.25 1011.05 1010.97 1010.93 1010.93 1010.73 1010.77 1010.81 1011.01 1011.01 1011.37 1011.37 1011.37 1011.49 1011.49 1011.29 1011.13 1010.81 1010.61 1010.45 1010.25 1010.13 1010.05 1010.05 1009.97 1009.73 1009.53 1009.57 1009.73 1010.45
1012.21 1012.45 1012.73 1012.81 1012.85 1013.01 1013.21 1013.37 1013.53 1013.65 1013.65 1013.65 1013.73 1013.65 1013.49 1013.21 1012.97 1012.69 1012.61 1012.81 1012.77 1012.41 1012.41 1012.49 1012.37 1012.37 1012.33 1012.29 1012.37 1012.25 1012.13 1012.17 1012.17 1012.21 1012.21 1012.13 1012.13 1012.09 1012.01 1011.89 1011.77 1011.57 1011.33 1011.33 1011.17 1011.13 1010.97 1010.97 1011.05 1010.93 1011.09 1011.21 1011.25 1011.33 1011.45 1011.21 1011.29 1011.33 1011.29 1011.29 1011.05 1010.77 1010.61 1010.45 1010.37 1010.33 1010.41 1010.57 1010.65 1010.33 1010.01 1009.97 1010.05 1010.17
1012.77 1013.01 1013.25 1013.33 1013.45 1013.65 1013.85 1013.97 1014.09 1014.17 1014.21 1014.13 1014.05 1014.09 1013.97 1013.77 1013.57 1013.45 1013.57 1013.53 1013.29 1013.05 1012.81 1012.41 1012.13 1011.97 1011.97 1011.93 1012.13 1012.21 1012.01 1012.25 1012.25 1011.93 1011.89 1011.81 1011.65 1011.65 1011.61 1011.69 1011.69 1011.53 1011.33 1011.29 1011.29 1011.01 1010.81 1010.73 1010.77 1010.85 1011.01 1011.09 1011.29 1011.45 1011.37 1011.37 1011.33 1011.21 1011.29 1011.21 1011.21 1011.09 1011.01 1010.89 1010.73 1010.81 1010.85 1011.05 1011.45 1011.25 1010.85 1010.77 1010.77 1010.89
Thickness
5793 5794 5793 5792 5792 5795 5796 5795 5795 5795 5793 5792 5790 5788 5784 5778 5771 5770 5773 5777 5785 5795 5799 5799 5799 5802 5800 5797 5798 5797 5796 5796 5795 5793 5793 5793 5793 5792 5790 5789 5787 5785 5783 5781 5779 5777 5775 5773 5771 5769 5767 5764 5762 5759 5757 5754 5752 5750 5748 5746 5744 5742 5740 5738 5736 5734 5731 5728 5725 5722 5720 5717 5715 5712
5795 5795 5795 5795 5794 5796 5796 5796 5798 5796 5794 5793 5793 5791 5791 5787 5779 5774 5773 5777 5786 5794 5798 5802 5803 5802 5802 5801 5800 5800 5799 5799 5797 5797 5796 5796 5796 5795 5794 5792 5790 5788 5786 5785 5784 5781 5780 5777 5775 5773 5770 5767 5765 5762 5760 5758 5755 5753 5750 5748 5746 5744 5742 5740 5738 5735 5733 5730 5727 5724 5721 5719 5716 5714
5797 5795 5795 5795 5794 5796 5797 5797 5798 5799 5797 5796 5795 5794 5794 5791 5787 5784 5777 5777 5788 5796 5796 5801 5807 5806 5805 5804 5803 5803 5803 5802 5800 5800 5800 5800 5799 5798 5796 5795 5793 5791 5789 5789 5787 5786 5784 5782 5779 5776 5773 5771 5769 5766 5764 5761 5758 5756 5753 5751 5749 5746 5744 5741 5739 5737 5734 5731 5727 5725 5722 5719 5716 5714
5798 5796 5795 5795 5795 5796 5796 5797 5798 5798 5799 5798 5798 5797 5796 5794 5792 5790 5784 5779 5787 5798 5799 5801 5806 5809 5808 5807 5806 5805 5805 5805 5803 5802 5803 5803 5802 5801 5800 5799 5797 5795 5794 5793 5792 5791 5789 5786 5783 5781 5778 5775 5772 5770 5768 5765 5762 5759 5756 5754 5752 5750 5747 5744 5741 5739 5735 5732 5728 5724 5722 5719 5716 5714
5799 5798 5796 5796 5797 5797 5796 5796 5798 5800 5800 5800 5799 5799 5798 5797 5796 5795 5790 5785 5787 5796 5803 5804 5806 5810 5809 5808 5808 5807 5807 5808 5807 5807 5806 5806 5805 5805 5805 5804 5803 5801 5798 5798 5797 5795 5793 5791 5788 5785 5783 5780 5777 5775 5772 5769 5766 5763 5760 5758 5755 5752 5750 5747 5743 5741 5737 5734 5729 5726 5722 5718 5716 5713
5800 5799 5798 5797 5798 5799 5798 5797 5798 5800 5802 5802 5802 5802 5801 5799 5800 5800 5795 5791 5790 5794 5801 5805 5806 5810 5810 5808 5810 5810 5809 5811 5812 5810 5810 5810 5809 5809 5808 5808 5808 5807 5805 5803 5801 5799 5797 5795 5793 5790 5788 5785 5783 5780 5777 5774 5771 5767 5766 5762 5759 5755 5752 5749 5746 5743 5740 5736 5732 5728 5723 5719 5716 5713
5801 5800 5799 5799 5800 5801 5798 5798 5800 5801 5803 5804 5803 5803 5805 5803 5803 5805 5802 5797 5795 5795 5800 5805 5807 5809 5811 5810 5813 5815 5814 5815 5813 5812 5813 5813 5813 5812 5811 5811 5811 5810 5809 5807 5805 5804 5802 5799 5796 5793 5790 5789 5786 5784 5781 5778 5775 5772 5769 5765 5762 5758 5755 5751 5748 5746 5743 5739 5735 5731 5726 5722 5718 5714
5803 5802 5801 5801 5803 5803 5800 5799 5801 5802 5803 5805 5804 5804 5806 5806 5805 5807 5807 5803 5801 5799 5800 5805 5808 5810 5811 5812 5816 5817 5816 5817 5816 5815 5814 5814 5815 5815 5815 5814 5814 5813 5810 5809 5810 5810 5807 5804 5800 5795 5793 5792 5789 5786 5784 5781 5777 5774 5771 5767 5763 5760 5757 5754 5751 5748 5745 5741 5737 5733 5729 5724 5720 5715
5805 5804 5804 5804 5805 5803 5802 5801 5802 5804 5804 5804 5806 5806 5807 5809 5808 5809 5809 5807 5806 5803 5801 5804 5809 5811 5812 5813 5816 5817 5815 5815 5817 5818 5817 5817 5816 5816 5817 5817 5817 5816 5814 5814 5815 5815 5811 5807 5801 5797 5795 5794 5790 5788 5785 5782 5779 5775 5772 5769 5766 5763 5760 5758 5754 5749 5745 5742 5738 5735 5731 5725 5722 5716
5808 5807 5807 5807 5807 5805 5804 5804 5804 5805 5806 5806 5807 5807 5809 5810 5810 5810 5810 5809 5808 5806 5805 5806 5808 5810 5812 5812 5814 5816 5816 5814 5813 5815 5817 5818 5819 5818 5817 5818 5818 5818 5817 5817 5818 5816 5813 5810 5804 5801 5798 5795 5791 5789 5785 5782 5779 5776 5773 5771 5769 5766 5764 5761 5756 5752 5748 5744 5741 5737 5730 5726 5722 5717
5811 5811 5810 5810 5810 5809 5808 5807 5807 5807 5807 5808 5809 5809 5810 5811 5811 5810 5811 5811 5810 5809 5809 5809 5809 5811 5813 5813 5813 5817 5818 5815 5813 5812 5811 5813 5817 5818 5817 5816 5818 5819 5819 5818 5817 5817 5815 5813 5809 5806 5803 5799 5794 5790 5787 5783 5780 5776 5774 5773 5771 5769 5767 5762 5757 5755 5753 5749 5743 5737 5732 5727 5722 5716
5813 5814 5814 5814 5814 5814 5813 5812 5811 5811 5810 5810 5810 5811 5813 5812 5811 5811 5812 5812 5811 5811 5810 5810 5811 5812 5813 5814 5815 5817 5817 5813 5811 5814 5813 5811 5814 5818 5817 5817 5817 5818 5820 5818 5817 5816 5816 5815 5813 5810 5808 5804 5799 5795 5790 5786 5782 5778 5776 5776 5776 5773 5769 5764 5761 5760 5756 5750 5744 5738 5733 5729 5722 5717
5814 5815 5816 5817 5818 5817 5816 5815 5814 5814 5813 5812 5811 5812 5814 5812 5811 5811 5812 5811 5811 5811 5810 5810 5812 5812 5812 5814 5815 5815 5815 5813 5813 5817 5817 5814 5816 5818 5819 5819 5818 5817 5818 5820 5818 5815 5812 5814 5814 5812 5809 5808 5805 5801 5797 5791 5785 5781 5779 5780 5780 5776 5771 5768 5767 5764 5758 5751 5745 5740 5734 5729 5724 5718
5814 5816 5818 5819 5820 5818 5817 5816 5815 5814 5814 5814 5814 5814 5814 5813 5812 5811 5811 5812 5812 5811 5809 5810 5811 5811 5812 5815 5817 5815 5817 5818 5818 5818 5815 5813 5816 5816 5814 5816 5819 5817 5815 5817 5818 5816 5811 5811 5813 5812 5809 5808 5808 5805 5803 5797 5788 5782 5781 5783 5782 5776 5772 5772 5770 5764 5758 5752 5748 5743 5737 5732 5726 5722
5814 5816 5818 5821 5821 5819 5819 5818 5816 5815 5815 5815 5815 5815 5815 5814 5813 5812 5811 5811 5812 5812 5811 5812 5812 5811 5811 5815 5817 5816 5818 5819 5818 5816 5814 5813 5813 5811 5808 5811 5816 5816 5813 5811 5814 5817 5814 5809 5811 5812 5810 5809 5810 5808 5805 5799 5791 5784 5784 5786 5783 5778 5776 5776 5771 5764 5758 5755 5751 5746 5740 5735 5730 5725
5814 5816 5818 5820 5822 5823 5822 5821 5820 5818 5817 5817 5816 5816 5816 5815 5814 5814 5812 5811 5811 5812 5812 5811 5812 5811 5811 5813 5815 5817 5817 5818 5816 5814 5813 5812 5811 5809 5806 5807 5812 5816 5814 5807 5806 5815 5818 5811 5808 5812 5813 5811 5812 5810 5805 5798 5792 5788 5786 5787 5785 5780 5778 5777 5772 5766 5761 5756 5752 5747 5742 5738 5733 5728
5816 5817 5817 5820 5822 5824 5824 5823 5823 5822 5820 5820 5818 5817 5817 5816 5816 5816 5814 5813 5812 5812 5812 5811 5811 5813 5813 5812 5814 5817 5817 5816 5814 5812 5811 5812 5811 5810 5809 5808 5812 5816 5813 5804 5800 5809 5819 5815 5807 5810 5815 5814 5814 5813 5807 5801 5795 5789 5786 5787 5785 5781 5779 5777 5772 5768 5763 5758 5753 5749 5744 5740 5736 5730
5817 5818 5818 5819 5821 5824 5825 5824 5824 5823 5822 5822 5821 5819 5819 5820 5820 5819 5818 5816 5814 5813 5813 5811 5811 5814 5815 5813 5814 5818 5817 5814 5812 5811 5810 5810 5811 5812 5812 5813 5815 5816 5813 5806 5798 5802 5816 5818 5809 5810 5815 5815 5815 5814 5809 5804 5799 5792 5787 5786 5785 5781 5778 5775 5771 5768 5764 5760 5755 5750 5746 5742 5737 5731
5820 5820 5821 5821 5822 5824 5825 5826 5825 5824 5824 5823 5822 5822 5822 5824 5826 5826 5825 5823 5821 5820 5818 5817 5816 5817 5817 5816 5816 5818 5818 5817 5816 5815 5813 5812 5813 5815 5817 5817 5817 5816 5815 5811 5802 5800 5813 5818 5811 5812 5816 5815 5814 5814 5808 5804 5802 5797 5791 5788 5785 5782 5777 5774 5770 5767 5763 5760 5755 5751 5746 5741 5736 5731
5821 5823 5823 5823 5824 5825 5826 5827 5826 5824 5824 5822 5821 5821 5822 5825 5827 5830 5831 5830 5828 5827 5826 5824 5823 5822 5820 5819 5816 5816 5816 5816 5817 5816 5812 5811 5810 5810 5811 5813 5815 5816 5815 5814 5806 5802 5810 5815 5811 5812 5816 5813 5811 5813 5810 5806 5803 5799 5795 5790 5786 5784 5780 5774 5771 5767 5762 5758 5754 5750 5745 5740 5735 5730
5822 5824 5825 5825 5826 5827 5829 5829 5826 5824 5822 5820 5819 5819 5821 5823 5824 5828 5832 5833 5832 5831 5830 5828 5826 5824 5822 5819 5815 5814 5813 5812 5812 5808 5803 5803 5804 5802 5801 5803 5810 5815 5814 5813 5809 5803 5806 5810 5808 5809 5814 5814 5810 5810 5811 5810 5807 5802 5798 5793 5788 5785 5781 5777 5772 5767 5762 5757 5752 5748 5744 5738 5733 5726
5824 5825 5826 5826 5827 5829 5830 5829 5827 5823 5821 5819 5818 5818 5818 5820 5821 5824 5829 5831 5833 5833 5830 5827 5825 5822 5820 5818 5816 5814 5813 5811 5809 5803 5801 5803 5803 5800 5798 5798 5804 5812 5813 5812 5809 5803 5802 5807 5806 5804 5809 5813 5812 5811 5810 5810 5808 5803 5798 5795 5791 5786 5782 5778 5773 5767 5762 5757 5752 5747 5742 5737 5729 5722
5825 5827 5827 5827 5827 5828 5829 5829 5827 5823 5821 5820 5819 5818 5818 5817 5818 5823 5827 5828 5828 5828 5826 5824 5823 5821 5821 5820 5818 5817 5816 5814 5811 5806 5805 5806 5804 5800 5799 5798 5798 5802 5808 5812 5809 5799 5799 5804 5803 5800 5798 5802 5809 5813 5810 5807 5805 5800 5795 5793 5790 5786 5781 5776 5771 5766 5760 5756 5751 5746 5741 5734 5726 5719
5825 5827 5828 5829 5828 5827 5828 5827 5826 5823 5821 5819 5819 5819 5817 5816 5818 5823 5826 5825 5824 5823 5821 5821 5821 5821 5822 5822 5822 5821 5820 5818 5816 5813 5810 5809 5806 5801 5800 5798 5796 5797 5804 5810 5805 5797 5797 5799 5799 5798 5795 5792 5800 5808 5807 5804 5801 5797 5793 5790 5787 5784 5780 5773 5769 5763 5758 5753 5749 5744 5738 5732 5725 5720
5826 5827 5829 5831 5831 5828 5827 5826 5826 5823 5820 5817 5816 5817 5817 5818 5819 5820 5820 5820 5820 5819 5819 5818 5818 5819 5820 5820 5820 5820 5819 5819 5818 5816 5814 5812 5811 5806 5801 5798 5796 5796 5802 5806 5801 5793 5792 5792 5792 5793 5792 5790 5792 5798 5801 5801 5799 5795 5793 5788 5784 5782 5779 5774 5769 5764 5757 5751 5746 5742 5736 5730 5725 5721
5826 5828 5829 5831 5831 5828 5826 5825 5824 5822 5818 5814 5814 5815 5817 5817 5816 5814 5814 5815 5815 5815 5815 5816 5814 5814 5814 5814 5815 5814 5815 5816 5816 5815 5813 5811 5809 5807 5804 5798 5793 5792 5797 5802 5798 5790 5787 5787 5786 5785 5784 5785 5787 5789 5792 5793 5794 5795 5792 5787 5782 5779 5776 5772 5768 5765 5760 5753 5747 5742 5738 5732 5728 5724
5827 5829 5830 5831 5829 5827 5825 5823 5822 5820 5817 5814 5814 5814 5814 5813 5811 5810 5811 5811 5810 5811 5811 5810 5809 5809 5809 5810 5810 5810 5810 5811 5811 5809 5807 5806 5804 5803 5802 5799 5795 5792 5793 5794 5793 5788 5785 5784 5784 5782 5780 5780 5781 5782 5784 5786 5787 5788 5786 5784 5781 5777 5773 5769 5766 5763 5761 5755 5748 5741 5734 5727 5722 5720
5830 5828 5828 5828 5827 5824 5822 5820 5818 5816 5814 5814 5813 5812 5810 5808 5808 5808 5809 5810 5809 5807 5806 5804 5804 5807 5808 5808 5808 5808 5807 5806 5805 5804 5803 5802 5800 5799 5799 5797 5794 5792 5792 5790 5788 5787 5784 5782 5782 5781 5780 5777 5775 5776 5778 5781 5782 5781 5779 5779 5778 5775 5771 5768 5765 5762 5759 5754 5747 5739 5729 5721 5716 5712
5826 5824 5822 5821 5820 5818 5816 5815 5814 5814 5813 5811 5809 5807 5805 5805 5807 5808 5809 5808 5806 5804 5802 5803 5804 5806 5807 5807 5805 5804 5803 5800 5800 5800 5799 5797 5796 5795 5794 5793 5792 5791 5790 5788 5787 5785 5783 5779 5778 5777 5776 5773 5772 5771 5773 5776 5778 5777 5775 5774 5774 5773 5770 5766 5763 5761 5758 5753 5746 5739 5732 5726 5719 5711
5817 5815 5815 5814 5813 5813 5813 5813 5813 5813 5812 5808 5805 5804 5804 5805 5807 5808 5807 5806 5804 5802 5802 5803 5803 5803 5803 5804 5802 5800 5798 5796 5795 5794 5792 5790 5790 5789 5787 5786 5787 5788 5788 5786 5784 5781 5779 5775 5773 5771 5770 5769 5768 5768 5769 5771 5772 5772 5772 5770 5769 5769 5767 5765 5762 5759 5755 5750 5746 5741 5734 5729 5722 5715
5812 5811 5810 5810 5811 5810 5809 5810 5810 5810 5809 5807 5806 5806 5806 5807 5807 5807 5805 5804 5802 5801 5800 5799 5798 5799 5799 5798 5796 5795 5794 5792 5791 5789 5786 5783 5783 5783 5781 5779 5779 5782 5783 5782 5780 5777 5773 5771 5768 5766 5765 5765 5765 5766 5767 5767 5767 5768 5770 5769 5766 5763 5763 5763 5759 5756 5752 5748 5743 5739 5733 5726 5720 5713
5811 5810 5808 5808 5808 5808 5808 5808 5809 5809 5809 5808 5808 5808 5808 5806 5805 5803 5801 5799 5798 5797 5795 5794 5793 5794 5793 5792 5792 5791 5789 5787 5785 5783 5780 5777 5776 5777 5775 5774 5773 5774 5774 5774 5774 5772 5769 5766 5763 5761 5760 5760 5761 5763 5763 5762 5762 5762 5763 5762 5760 5758 5759 5758 5754 5752 5751 5746 5740 5734 5729 5724 5718 5711
5812 5810 5809 5808 5808 5807 5806 5806 5806 5807 5806 5805 5804 5803 5802 5800 5799 5798 5797 5795 5794 5792 5791 5789 5788 5787 5787 5786 5786 5785 5782 5780 5778 5776 5773 5771 5771 5770 5769 5768 5767 5767 5765 5765 5765 5764 5761 5758 5757 5756 5755 5756 5757 5758 5756 5753 5751 5749 5747 5748 5748 5748 5748 5749 5749 5747 5745 5739 5734 5729 5724 5719 5714 5707
5813 5811 5810 5809 5808 5807 5805 5804 5804 5803 5800 5797 5795 5795 5794 5794 5794 5794 5794 5793 5791 5788 5786 5785 5784 5783 5781 5780 5779 5777 5775 5773 5772 5771 5769 5767 5765 5765 5764 5763 5762 5760 5759 5758 5758 5756 5753 5752 5751 5750 5750 5752 5753 5752 5747 5743 5740 5737 5735 5734 5736 5738 5739 5741 5742 5741 5738 5734 5729 5723 5717 5711 5706 5699
5814 5812 5811 5809 5808 5806 5804 5803 5801 5798 5795 5793 5791 5790 5791 5791 5791 5790 5789 5788 5786 5783 5781 5780 5779 5778 5776 5774 5772 5771 5768 5767 5767 5766 5765 5764 5761 5760 5759 5757 5755 5754 5753 5752 5752 5751 5749 5747 5744 5743 5743 5744 5744 5742 5740 5737 5732 5728 5726 5725 5725 5727 5730 5732 5733 5733 5731 5728 5723 5717 5709 5702 5696 5691
5812 5810 5808 5805 5803 5801 5798 5796 5795 5794 5793 5792 5791 5790 5789 5789 5788 5787 5784 5781 5780 5778 5776 5775 5774 5772 5771 5769 5767 5766 5764 5763 5762 5761 5760 5759 5757 5756 5754 5751 5748 5748 5747 5745 5745 5745 5744 5741 5737 5733 5732 5733 5732 5729 5729 5728 5723 5718 5715 5715 5716 5719 5721 5723 5724 5723 5722 5720 5717 5711 5704 5696 5689 5683
5807 5806 5803 5800 5797 5795 5792 5790 5790 5790 5790 5791 5790 5789 5787 5786 5784 5781 5777 5774 5774 5772 5771 5770 5769 5768 5766 5765 5763 5762 5761 5760 5758 5756 5755 5754 5752 5750 5747 5744 5742 5741 5741 5741 5740 5739 5737 5734 5730 5725 5723 5722 5720 5717 5717 5717 5713 5708 5704 5704 5707 5711 5713 5713 5714 5713 5711 5710 5707 5702 5696 5689 5681 5675
5801 5799 5798 5797 5795 5792 5789 5787 5785 5785 5785 5786 5785 5783 5783 5780 5777 5774 5771 5770 5769 5768 5767 5766 5765 5763 5761 5761 5759 5758 5757 5756 5753 5752 5750 5748 5746 5743 5739 5737 5735 5734 5734 5735 5735 5733 5730 5725 5721 5717 5714 5712 5709 5707 5706 5705 5704 5701 5697 5693 5697 5702 5705 5704 5703 5701 5699 5697 5695 5691 5686 5680 5673 5667
5792 5789 5786 5787 5789 5788 5786 5783 5781 5780 5780 5780 5779 5777 5775 5773 5770 5768 5767 5765 5763 5762 5762 5761 5759 5756 5756 5756 5755 5754 5752 5750 5747 5746 5745 5742 5739 5735 5732 5730 5729 5728 5728 5728 5727 5726 5722 5718 5712 5709 5706 5702 5700 5698 5697 5696 5694 5693 5689 5686 5687 5692 5694 5693 5692 5690 5687 5684 5682 5679 5674 5668 5662 5657
5786 5783 5779 5778 5779 5780 5780 5778 5776 5776 5775 5774 5773 5771 5769 5766 5765 5764 5762 5759 5756 5755 5756 5755 5752 5751 5751 5751 5750 5749 5748 5745 5742 5741 5739 5736 5733 5729 5725 5724 5723 5723 5722 5719 5718 5716 5713 5709 5705 5701 5698 5696 5695 5694 5693 5689 5686 5683 5680 5677 5677 5679 5680 5681 5680 5678 5675 5672 5671 5668 5662 5657 5652 5646
5778 5777 5775 5775 5775 5774 5773 5772 5771 5771 5769 5768 5766 5762 5759 5759 5758 5756 5754 5752 5750 5749 5750 5749 5747 5746 5745 5745 5744 5743 5741 5739 5738 5736 5733 5731 5728 5724 5720 5718 5718 5718 5715 5711 5709 5708 5705 5701 5700 5698 5696 5694 5691 5688 5685 5680 5675 5672 5669 5668 5667 5667 5667 5667 5667 5665 5662 5661 5661 5658 5653 5649 5644 5639
5770 5769 5769 5770 5770 5768 5766 5765 5765 5764 5763 5761 5759 5756 5753 5752 5750 5747 5746 5745 5743 5743 5746 5746 5744 5742 5741 5740 5739 5737 5736 5734 5731 5729 5726 5724 5722 5719 5716 5714 5712 5711 5708 5705 5703 5702 5700 5697 5696 5695 5692 5689 5685 5680 5674 5670 5667 5663 5661 5659 5658 5658 5657 5656 5655 5653 5651 5650 5649 5647 5644 5641 5637 5632
5760 5759 5757 5757 5758 5757 5755 5755 5754 5753 5752 5750 5749 5748 5748 5747 5745 5744 5745 5743 5740 5741 5744 5742 5739 5738 5737 5735 5733 5731 5729 5728 5725 5723 5720 5718 5715 5712 5711 5708 5706 5705 5704 5701 5699 5698 5696 5692 5690 5689 5685 5681 5677 5673 5668 5665 5661 5658 5654 5653 5652 5651 5650 5649 5647 5645 5643 5640 5639 5638 5637 5635 5632 5627
5749 5748 5746 5746 5745 5745 5744 5742 5741 5740 5739 5739 5738 5738 5738 5739 5739 5740 5740 5737 5735 5736 5738 5736 5734 5733 5732 5729 5727 5726 5724 5722 5719 5716 5714 5712 5709 5707 5705 5703 5701 5700 5698 5696 5693 5692 5690 5687 5684 5682 5678 5673 5669 5665 5662 5659 5657 5653 5650 5649 5647 5646 5645 5644 5641 5639 5637 5633 5631 5630 5630 5629 5626 5623
5738 5737 5736 5736 5735 5734 5732 5731 5730 5729 5729 5729 5728 5727 5727 5727 5728 5728 5727 5726 5726 5726 5727 5727 5728 5728 5727 5724 5721 5718 5716 5714 5712 5711 5709 5707 5705 5703 5701 5698 5695 5693 5691 5690 5687 5686 5685 5683 5680 5675 5671 5668 5664 5660 5656 5654 5652 5648 5645 5642 5640 5638 5637 5635 5633 5631 5628 5624 5621 5621 5621 5620 5618 5615